LEMUR-2-SAM-AMELIA

Last updated on Wed Feb 14 2018 16:20:45 GMT+0000 (Coordinated Universal Time)

1 42781U 17036S 18044.72040261 .00001687 00000-0 77646-4 0 9994 2 42781 97.4194 106.4712 0013614 142.2122 218.0073 15.21629090 35732
UTC large
Height (km)
Speed (km/s)
/
Latitude / Longitude
Inclination (degrees)
Orbital Period (minutes)
Azimuth
Elevation
Range (km)
Doppler Factor

Next 0 passes for location: London (51.5072 / 0.1276)

Sorry there are no passes over London.